User: anonymous   Login
Location: Nelson
(41.2830°S, 173.2830°E)
Time: 04:24:17
(UTC+13:00)
Language:

BREEZE-M DEB (TANK) - Orbit

View from above orbital plane
View from above orbital plane
View from above satellite
View from above satellite

Ground track
Ground track

The orbit data is extracted from the following two-line orbital elements,

1 34712U 09016C   19286.12349423 +.00000624 +00000-0 +10471-3 0  9995
2 34712 046.0982 319.9305 5057597 147.4804 257.4671 05.52760847206862
Epoch (UTC): 13 October 2019 02:57:49
Eccentricity: 0.5057597
inclination: 46.0982°
perigee height: 300 km
apogee height: 13967 km
right ascension of ascending node: 319.9305°
argument of perigee: 147.4804°
revolutions per day: 5.52760847
mean anomaly at epoch: 257.4671°
orbit number at epoch: 20686

The dashed part of the orbit path shows where the satellite is in the earth's shadow,  

DLR